7 * 24
多渠道服务支持
STARLINK-38129(NORAD编号100268)是美国SpaceX公司星链低轨宽带星座的组网卫星,属于量产型通信卫星平台,重约260-280kg,运行于距地表约500-550公里的近地轨道。卫星搭载Ku/Ka波段相控阵天线与霍尔效应推进器,部分批次配置星间激光链路,可实现全球范围低时延高速互联网传输,为偏远地区、航海航空、灾害救援场景提供通信支撑,也承担军事、应急通信保障功能,是全球最大卫星互联网星座的组成单元。
美国
(US)
| 数据来源 | 国际轨道数据 |
| 星历时间: | 2026-09-21T10:32:45+0800 16小时前 查看轨道信息 |
| 半长轴: | 6722.192km |
| 偏心率: | 0.0001498 |
| 轨道倾角: | 97.285° |
| 近地点辐角 | 103.814° |
| 升交点赤经 | 307.697° |
| 平近点角 | 256.329° |
| 近地点: | 343.048km |
| 远地点: | 345.062km |
| 周期: | 91.417分钟 |
| 每日圈数: | 15.752028 |